Kingaroy, Queensland

4:20 PM AEST on September 26, 2016 (GMT +1000)
Kingaroy

Weather History for 94549 - December, 2013

Change the Weather History Date:

Sunday, December 1, 2013

  Actual Average Record
Temperature  
Mean Temperature 65 °F -  
Max Temperature 77 °F - - ()
Min Temperature 53 °F - - ()
Growing Degree Days 15 (Base 50)    
Moisture  
Dew Point 52 °F    
Average Humidity 63    
Maximum Humidity 88    
Minimum Humidity 31    
Precipitation  
Precipitation 0.00 in - - ()
Sea Level Pressure  
Sea Level Pressure 30.12 in    
Wind  
Wind Speed 7 mph ()    
Max Wind Speed 15 mph    
Max Gust Speed -    
T = Trace of Precipitation, MM = Missing Value Source: Averaged Metar Reports

Daily Weather History Graph

Daily Weather History Graph

Search for Another Location

Airport or City:

Trip Planner

Search our weather history database for the weather conditions in past years. The results will help you decide how hot, cold, wet, or windy it might be!

Date:

Astronomy

Dec. 01, 2013 Rise Set
Actual Time 4:51 AM AEST 6:32 PM AEST
Civil Twilight 4:25 AM AEST 6:57 PM AEST
Nautical Twilight 3:54 AM AEST 7:28 PM AEST
Astronomical Twilight 3:22 AM AEST 8:01 PM AEST
Moon 3:06 AM AEST (12/1) 4:36 PM AEST (12/1)
Length of Visible Light 14h 32m
Length of Day
13h 40m
Waning Crescent, 5% of the Moon is Illuminated
Dec 1
Waning Crescent
Dec 3
New
Dec 10
First Quarter
Dec 17
Full
Dec 25
Last Quarter

Hourly Weather History & Observations

Time (AEST) Temp. Dew Point Humidity Pressure Visibility Wind Dir Wind Speed Gust Speed Precip Events Conditions
12:00 AM 58 °F 52 °F 75% 30.06 in - SE 8.1 mph - -  
12:00 AM 59.0 °F 51.8 °F 77% 30.12 in - SE 8.1 mph - N/A   Unknown
1:00 AM 57.2 °F 51.8 °F 82% 30.12 in - SE 4.6 mph - N/A   Unknown
2:00 AM 55.4 °F 51.8 °F 88% 30.09 in - SE 3.5 mph - N/A   Unknown
3:00 AM 55 °F 51 °F 82% 30.05 in - ENE 2.3 mph - -  
3:00 AM 55.4 °F 51.8 °F 88% 30.09 in - ENE 2.3 mph - N/A   Unknown
4:00 AM 53.6 °F 50.0 °F 88% 30.09 in - East 2.3 mph - N/A   Unknown
5:00 AM 53.6 °F 50.0 °F 88% 30.12 in - South 4.6 mph - N/A   Unknown
6:00 AM 58 °F 52 °F 73% 30.10 in - WNW 2.3 mph - -  
6:00 AM 59.0 °F 51.8 °F 77% 30.15 in - WNW 2.3 mph - N/A   Unknown
7:00 AM 62.6 °F 53.6 °F 72% 30.18 in - SE 8.1 mph - N/A   Unknown
8:00 AM 66.2 °F 55.4 °F 68% 30.18 in - East 15.0 mph - N/A   Unknown
9:00 AM 68 °F 53 °F 49% 30.14 in - SE 10.4 mph - -  
9:00 AM 68.0 °F 53.6 °F 60% 30.18 in - SE 10.4 mph - N/A   Unknown
10:00 AM 69.8 °F 53.6 °F 56% 30.18 in - SE 11.5 mph - N/A   Unknown
11:00 AM 71.6 °F 51.8 °F 50% 30.18 in - SE 10.4 mph - N/A   Unknown
12:00 PM 75 °F 56 °F 41% 30.10 in - SE 10.4 mph - -  
12:00 PM 75.2 °F 55.4 °F 50% 30.15 in - SE 10.4 mph - N/A   Unknown
1:00 PM 73.4 °F 51.8 °F 47% 30.12 in - ESE 10.4 mph - N/A   Unknown
2:00 PM 75.2 °F 50.0 °F 41% 30.09 in - ESE 13.8 mph - N/A   Unknown
3:00 PM 76 °F 51 °F 31% 30.03 in - SE 12.7 mph - -  
3:00 PM 77.0 °F 51.8 °F 41% 30.06 in - SE 12.7 mph - N/A   Unknown
4:00 PM 75.2 °F 50.0 °F 41% 30.09 in - SE 12.7 mph - N/A   Unknown
5:00 PM 73.4 °F 51.8 °F 47% 30.09 in - ESE 12.7 mph - N/A   Unknown
6:00 PM 71 °F 52 °F 41% 30.07 in - East 12.7 mph - -  
6:00 PM 71.6 °F 51.8 °F 50% 30.12 in - East 12.7 mph - N/A   Unknown
7:00 PM 66.2 °F 53.6 °F 64% 30.15 in - ESE 9.2 mph - N/A   Unknown
8:00 PM 62.6 °F 53.6 °F 72% 30.18 in - ESE 10.4 mph - N/A   Unknown
9:00 PM 62 °F 52 °F 62% 30.14 in - East 12.7 mph - -  
9:00 PM 62.6 °F 51.8 °F 68% 30.18 in - East 12.7 mph - N/A   Unknown
10:00 PM 60.8 °F 53.6 °F 77% 30.18 in - ESE 11.5 mph - N/A   Unknown
11:00 PM 59.0 °F 51.8 °F 77% 30.18 in - East 6.9 mph - N/A   Unknown